Regional Weather Roundup
Issued by NWS Jackson, KY

Home | Current Version | Previous Version | Graphics & Text | Print | Product List | Glossary On
Versions: 1 2 3 4 5 6 7 8 9 10 11 12 13 14 15 16 17 18 19 20 21 22 23 24 25 26 27 28 29 30 31 32 33 34 35 36 37 38 39 40 41 42 43 44 45 46 47 48 49 50
000
ASUS43 KJKL 020019
RWRJKL

EAST KENTUCKY HOURLY WEATHER ROUNDUP
NATIONAL WEATHER SERVICE JACKSON KY
700 PM EST SUN FEB 01 2015

NOTE: "FAIR" INDICATES FEW OR NO CLOUDS BELOW 12,000 FEET WITH
NO SIGNIFICANT WEATHER AND/OR OBSTRUCTIONS TO VISIBILITY.

* THESE REPORTS ARE NOT UNDER NWS QUALITY CONTROL AND MAY NOT
  REPORT WEATHER SUCH AS PRECIPITATION AND FOG.

KYZ079-080-083-085-087-088-110-112-115-119-120-020100
...EASTERN KENTUCKY...

CITY           SKY/WX    TMP DP  RH WIND       PRES   REMARKS
JACKSON        RAIN      46  44  93 VRB7      29.67F FOG
6HR MIN TEMP:  46; 6HR MAX TEMP:  49; 6HR PCP:  0.19;

LONDON         RAIN      49  45  86 S13G18    29.67F FOG
6HR MIN TEMP:  47; 6HR MAX TEMP:  50; 6HR PCP:  0.61;

SOMERSET*      LGT RAIN  46  46 100 S8G17     29.67F
MONTICELLO*    CLOUDY    52  49  89 S15G22    29.68F FOG
6HR MIN TEMP:  47; 6HR MAX TEMP:  52; 6HR PCP:  0.14;

MIDDLESBORO*   LGT RAIN  43  41  94 CALM      29.78F
6HR MIN TEMP:  43; 6HR MAX TEMP:  46; 6HR PCP:  0.06;

HARLAN APT*    CLOUDY    41  41 100 E5        29.76F
BLACK MTN*       N/A     37  37 100 S3          N/A
PIKEVILLE APT* LGT RAIN  45  41  87 S8        29.72F
BIG SANDY*     RAIN      45  43  93 S10       29.72F
6HR MIN TEMP:  45; 6HR MAX TEMP:  50;

MOREHEAD APT*  LGT RAIN  45  43  93 S9G18     29.65F
ASHLAND*       CLOUDY    45  43  93 S6        29.63F
$$

KYZ035-036-041-042-044-050-067-078-099-020100
...CENTRAL KENTUCKY...

CITY           SKY/WX    TMP DP  RH WIND       PRES   REMARKS
MT STERLING*   LGT RAIN  46  45  93 SW15      29.64F
FLEMING/MASON* RAIN      43  42  97 S10G20    29.62F
DANVILLE*      RAIN      46  45  93 SW9       29.64F
RICHMOND*      CLOUDY    50  46  87 S20G26    29.63S
LEXINGTON      RAIN      47  45  93 S14       29.61F FOG
6HR MIN TEMP:  41; 6HR MAX TEMP:  47; 6HR PCP:  0.28;

FRANKFORT      LGT RAIN  48  46  93 SW14      29.59F FOG
6HR MIN TEMP:  42; 6HR MAX TEMP:  48; 6HR PCP:  0.24;

$$

KYZ091>093-OHZ055-061-077-WVZ005-015-034-035-042-020100
...SOUTHERN OHIO/WEST VIRGINIA...

CITY           SKY/WX    TMP DP  RH WIND       PRES   REMARKS
COVINGTON      LGT RAIN  45  43  93 S10       29.57F
COLUMBUS       LGT RAIN  36  36 100 SE10      29.59F FOG     WCI  28
DAYTON         LGT RAIN  41  40  96 S9        29.57F FOG
WILMINGTON     LGT RAIN  40  38  93 S16       29.56F FOG     WCI  31
HUNTINGTON     LGT RAIN  44  41  89 S13G20    29.67F
CHARLESTON     LGT RAIN  43  39  86 CALM      29.72F
PINEVILLE*     RAIN      43  43  99 MISG      29.83F
BECKLEY        LGT RAIN  39  34  82 S15G21    29.79F WCI  31
BLUEFIELD      CLOUDY    43  35  73 S10G20    29.82F
$$

VAZ002-007-008-TNZ017-027-036-066-071-020100
...SOUTHWEST VIRGINIA/EAST TENNESSEE...

CITY           SKY/WX    TMP DP  RH WIND       PRES   REMARKS
WISE*          LGT RAIN  43  43 100 S12       29.77F
JONESVILLE*    CLOUDY    39  39 100 CALM      29.80F
ABINGDON*      DRIZZLE   49  43  78 SW7       29.81F
BRISTOL        LGT RAIN  49  43  80 SE5       29.80F
KNOXVILLE      LGT RAIN  44  42  93 CALM      29.76F
OAK RIDGE      LGT RAIN  44  43  96 SW3       29.78F FOG
CROSSVILLE     LGT RAIN  48  45  89 S12G22    29.72F
NASHVILLE      RAIN      55  53  93 SW13      29.66S FOG
$$

...KEY TO REMARKS...
VSB - VISIBILITY IN MILES
WCI - WIND CHILL INDEX
HX  - HEAT INDEX

$$


USA.gov is the U.S. government's official web portal to all federal, state and local government web resources and services.